Date,TemperatureHighF,TemperatureAvgF,TemperatureLowF,DewpointHighF,DewpointAvgF,DewpointLowF,HumidityHigh,HumidityAvg,HumidityLow,PressureMaxIn,PressureMinIn,WindSpeedMaxMPH,WindSpeedAvgMPH,GustSpeedMaxMPH,PrecipitationSumIn
2013-1-1,34.8,26.4,20.0,19.5,14.8,11.5,79,62,43,30.38,30.12,15,3,16,0.00
2013-1-2,34.8,22.3,10.3,12.4,9.2,4.7,83,59,29,30.45,30.32,9,1,10,0.00
2013-1-3,35.0,22.7,12.7,14.3,10.9,7.7,82,62,39,30.55,30.42,8,0,9,0.00
2013-1-4,33.9,21.1,8.9,11.5,7.3,4.0,85,58,31,30.54,30.40,8,1,9,0.00
2013-1-5,41.4,28.0,19.1,8.4,6.4,4.5,58,41,22,30.56,30.43,11,2,15,0.00
2013-1-6,43.5,27.5,13.4,12.1,8.7,5.5,72,48,23,30.55,30.26,6,0,6,0.00
2013-1-7,48.0,35.1,26.1,16.5,14.2,11.9,62,43,28,30.26,29.98,8,1,11,0.00
2013-1-8,48.2,33.4,19.9,15.6,13.1,9.9,74,45,23,30.33,29.99,12,3,16,0.00
2013-1-9,51.8,35.2,22.1,16.0,13.8,11.5,64,44,22,30.51,30.19,9,1,10,0.00
2013-1-10,48.7,35.8,22.7,22.1,15.0,12.3,66,44,24,30.19,29.76,10,1,14,0.00
2013-1-11,41.1,32.4,21.7,23.6,6.2,-8.3,59,34,20,29.94,29.62,20,5,27,0.00
2013-1-12,33.0,20.2,8.5,-0.3,-4.4,-11.8,59,35,17,30.21,29.94,12,2,14,0.00
2013-1-13,29.8,19.1,6.8,5.3,-1.1,-5.5,68,42,25,30.31,30.17,8,1,10,0.00
2013-1-14,29.4,21.0,10.9,21.4,9.5,-0.3,85,62,41,30.28,30.10,12,1,12,0.01
2013-1-15,23.8,14.0,4.7,6.3,2.1,-1.4,85,60,40,30.67,30.27,12,2,13,0.00
2013-1-16,39.0,24.7,10.8,14.6,8.2,1.5,71,50,34,30.72,30.55,11,2,13,0.00
2013-1-17,51.2,31.1,16.2,16.7,14.1,10.2,80,53,24,30.69,30.51,6,1,8,0.00
2013-1-18,50.9,35.8,24.4,20.0,17.4,15.0,72,49,27,30.51,30.29,7,0,8,0.00
2013-1-19,52.2,36.2,24.5,18.9,15.8,11.3,69,45,22,30.43,30.32,8,1,11,0.00
2013-1-20,53.5,36.3,20.5,15.9,11.1,4.7,69,39,16,30.40,30.24,10,1,12,0.00
2013-1-21,52.9,35.9,20.1,16.4,11.2,7.7,63,38,18,30.37,30.24,9,1,11,0.00
2013-1-22,59.9,41.0,24.5,17.1,11.9,0.3,62,34,9,30.36,30.24,15,2,15,0.00
2013-1-23,60.2,42.2,25.9,15.3,10.0,4.7,52,29,11,30.39,30.27,11,1,11,0.00
2013-1-24,61.9,45.9,29.9,34.1,16.4,8.0,56,33,16,30.33,30.15,14,1,14,0.00
2013-1-25,58.6,48.8,38.5,38.1,34.9,29.6,78,59,46,30.21,30.06,7,1,10,0.00
2013-1-26,56.8,48.4,42.5,49.2,41.5,35.6,91,77,63,30.06,29.78,13,2,17,0.12
2013-1-27,59.5,48.4,42.4,41.4,36.6,31.4,86,65,35,29.90,29.79,15,2,18,0.00
2013-1-28,55.2,44.2,35.6,37.8,32.9,18.1,81,66,37,29.83,29.62,18,4,23,0.03
2013-1-29,35.6,30.7,26.0,21.1,14.4,4.3,71,52,30,30.07,29.66,25,5,28,0.01
2013-1-30,41.9,31.0,20.2,17.3,14.1,8.1,74,52,30,30.34,30.07,18,4,22,0.00
2013-1-31,52.1,37.4,23.9,24.2,19.2,11.3,81,51,26,30.40,30.27,14,2,16,0.00
2013-2-1,56.9,39.9,25.6,22.5,19.0,12.9,74,46,21,30.31,30.18,12,2,18,0.00
2013-2-2,58.4,43.0,30.5,22.0,17.2,8.9,63,38,20,30.38,30.26,9,1,11,0.00
2013-2-3,52.3,41.4,29.5,28.1,17.9,7.1,53,40,22,30.29,29.98,8,1,11,0.00
2013-2-4,59.2,43.9,30.8,29.4,24.2,18.1,82,49,23,30.08,29.94,12,2,14,0.00
2013-2-5,61.6,44.3,31.0,23.7,18.6,14.0,65,39,17,30.08,29.93,7,1,10,0.00
2013-2-6,61.2,45.2,28.8,26.9,20.6,16.0,62,39,25,29.97,29.80,16,2,16,0.00
2013-2-7,58.5,44.4,31.1,26.8,21.5,13.7,73,43,18,30.09,29.94,16,2,22,0.00
2013-2-8,57.9,45.5,31.9,23.5,20.0,14.7,63,38,23,30.06,29.68,20,3,22,0.00
2013-2-9,48.9,38.9,28.4,22.0,12.1,2.2,61,35,20,29.83,29.52,24,6,29,0.00
2013-2-10,44.1,32.4,24.3,20.3,13.7,8.7,68,49,24,30.04,29.83,17,2,17,0.00
2013-2-11,48.7,33.3,20.5,22.3,14.8,0.7,79,52,15,30.09,29.94,15,2,21,0.00
2013-2-12,42.0,30.9,20.8,22.3,12.5,2.7,81,50,20,30.27,29.99,14,2,17,0.00
2013-2-13,48.2,34.1,22.6,17.0,13.2,10.2,60,44,25,30.28,30.13,16,3,17,0.00
2013-2-14,51.9,37.6,25.3,19.8,17.4,14.2,67,46,23,30.24,30.08,22,3,22,0.00
2013-2-15,52.0,37.8,23.7,21.8,12.6,1.5,75,41,13,30.41,30.24,19,2,24,0.00
2013-2-16,56.9,42.5,29.7,11.7,7.5,-4.1,43,26,9,30.45,30.12,13,2,15,0.00
2013-2-17,60.0,42.9,24.7,7.8,3.2,-2.9,41,21,8,30.13,29.68,14,2,21,0.00
2013-2-18,52.1,40.5,30.2,16.4,-3.8,-24.1,48,20,4,30.07,29.78,15,3,18,0.00
2013-2-19,59.6,41.7,22.7,33.7,6.7,-11.8,67,28,9,30.08,29.71,15,3,21,0.00
2013-2-20,51.3,42.7,34.3,33.6,26.3,13.7,75,55,24,29.71,29.40,22,4,24,0.00
2013-2-21,44.8,34.0,26.3,27.1,23.8,19.7,92,68,38,29.93,29.48,14,2,18,0.27
2013-2-22,41.8,34.0,27.8,23.8,20.9,12.8,74,60,34,30.10,29.91,15,2,22,0.00
2013-2-23,48.2,35.8,22.3,17.8,12.6,7.8,63,41,23,30.14,29.75,10,2,14,0.00
2013-2-24,42.2,33.1,26.3,23.8,16.9,4.4,89,54,25,29.93,29.63,18,4,22,0.00
2013-2-25,48.9,33.8,19.8,23.7,14.1,5.3,89,50,18,30.18,29.93,13,2,17,0.11
2013-2-26,48.7,34.6,24.7,15.0,7.6,-8.3,63,36,13,30.13,29.84,24,4,25,0.00
2013-2-27,44.9,31.6,17.8,11.6,6.7,-0.3,69,38,16,30.36,30.12,9,1,10,0.00
2013-2-28,53.2,37.1,24.5,7.6,4.8,-3.6,44,28,10,30.42,30.28,13,3,19,0.00
2013-3-1,59.3,43.8,29.1,20.9,14.1,6.2,47,31,18,30.41,30.23,11,2,17,0.00
2013-3-2,64.6,47.8,31.6,23.5,21.2,18.9,64,38,18,30.39,30.12,11,2,14,0.00
2013-3-3,64.6,52.2,36.7,22.5,15.6,-4.7,48,27,6,30.12,29.77,16,2,17,0.00
2013-3-4,62.6,52.7,42.3,23.5,19.6,14.3,41,28,16,29.99,29.65,18,3,26,0.00
2013-3-5,60.5,46.3,29.1,22.0,17.2,9.1,65,34,13,30.24,29.98,10,1,12,0.00
2013-3-6,66.4,54.2,45.8,25.9,22.0,18.3,37,29,18,30.13,29.81,13,2,17,0.00
2013-3-7,70.4,55.7,37.6,21.4,17.0,13.3,44,24,12,29.94,29.73,16,2,17,0.00
2013-3-8,60.8,47.6,38.8,42.5,25.6,12.7,87,47,19,29.82,29.61,16,3,22,0.17
2013-3-9,44.4,37.8,32.2,35.0,24.8,17.1,88,61,35,29.99,29.70,16,3,20,0.04
2013-3-10,50.7,38.7,27.8,29.0,23.1,16.1,86,57,28,30.18,29.98,12,1,18,0.00
2013-3-11,62.4,46.7,33.0,20.8,16.9,8.4,53,33,13,30.21,29.96,13,3,18,0.00
2013-3-12,66.4,50.1,33.8,25.3,21.8,19.5,61,35,18,30.16,30.01,10,1,14,0.00
2013-3-13,69.0,53.1,36.6,27.0,22.1,15.4,61,33,16,30.26,30.08,11,1,15,0.00
2013-3-14,73.1,55.9,41.3,25.0,19.2,10.4,46,26,10,30.22,30.04,9,1,11,0.00
2013-3-15,77.8,60.3,43.3,22.2,15.5,4.1,38,19,6,30.07,29.75,9,1,11,0.00
2013-3-16,71.9,59.4,48.0,32.9,20.6,13.5,46,23,14,29.76,29.55,14,3,20,0.00
2013-3-17,69.8,54.3,41.9,39.1,20.5,-14.1,67,35,4,29.72,29.53,23,3,30,0.00
2013-3-18,67.9,51.9,35.9,13.8,6.5,0.5,38,18,7,29.89,29.72,18,2,20,0.00
2013-3-19,63.7,50.5,40.5,18.1,11.3,0.4,40,21,13,30.08,29.86,14,2,16,0.00
2013-3-20,63.5,48.9,30.6,26.5,18.6,15.0,57,32,17,30.17,29.78,17,1,17,0.00
2013-3-21,72.1,57.4,45.4,32.2,18.5,-8.6,47,26,5,29.78,29.46,19,4,30,0.00
2013-3-22,65.3,51.2,35.0,26.5,12.7,4.7,41,23,10,29.67,29.49,21,3,24,0.00
2013-3-23,49.9,39.7,28.3,27.4,2.9,-17.5,56,25,8,30.07,29.59,29,5,30,0.00
2013-3-24,53.2,38.2,21.9,-0.4,-5.8,-13.5,30,16,9,30.19,29.95,18,3,22,0.00
2013-3-25,55.2,39.7,21.5,11.6,6.0,-1.3,50,26,14,30.23,30.07,13,2,18,0.00
2013-3-26,65.9,48.2,29.2,12.5,9.8,7.2,45,23,11,30.18,29.89,15,3,17,0.00
2013-3-27,71.4,58.5,44.6,14.4,10.6,4.3,28,16,9,29.96,29.80,12,2,16,0.00
2013-3-28,72.6,60.2,44.3,22.9,15.1,7.0,31,18,9,29.95,29.81,18,2,21,0.00
2013-3-29,74.5,58.9,43.0,25.1,19.6,11.9,43,24,10,30.00,29.85,14,1,14,0.00
2013-3-30,72.9,58.2,41.5,26.0,20.2,14.6,45,25,11,30.00,29.81,14,1,21,0.00
2013-3-31,71.8,60.0,47.2,31.2,27.1,24.4,48,30,18,29.91,29.74,13,1,15,0.00
2013-4-1,74.7,61.9,46.5,26.3,17.9,2.8,45,21,7,29.85,29.63,14,2,17,0.00
2013-4-2,67.6,55.4,44.7,26.1,16.4,6.2,38,22,10,29.82,29.61,20,2,26,0.00
2013-4-3,68.1,51.9,36.7,31.3,25.4,17.1,69,40,15,30.01,29.81,14,2,18,0.00
2013-4-4,72.8,55.8,37.5,27.2,18.3,8.0,56,28,9,30.11,29.92,9,1,11,0.00
2013-4-5,77.1,64.3,54.8,18.0,12.3,7.0,22,14,8,29.94,29.57,18,3,22,0.00
2013-4-6,75.7,61.6,46.7,26.8,20.3,12.0,42,22,9,29.79,29.60,17,2,18,0.00
2013-4-7,76.5,62.6,45.1,26.7,19.2,11.4,44,21,10,29.69,29.51,18,2,29,0.00
2013-4-8,77.3,62.8,47.9,27.8,20.8,7.3,42,21,7,29.54,29.12,30,5,31,0.00
2013-4-9,54.0,44.9,36.8,35.2,30.4,23.8,89,58,37,29.76,29.15,19,3,25,0.10
2013-4-10,48.4,40.0,34.5,34.1,27.1,20.8,91,61,41,29.96,29.76,14,2,16,0.08
2013-4-11,66.5,47.1,28.2,31.5,24.7,18.1,72,45,23,30.00,29.77,17,3,20,0.00
2013-4-12,69.4,55.4,40.6,33.6,28.9,21.4,71,39,19,29.82,29.66,12,1,14,0.00
2013-4-13,74.9,58.9,41.2,29.8,22.3,10.2,60,29,9,29.76,29.48,18,3,25,0.00
2013-4-14,78.0,64.4,54.2,24.9,21.8,16.0,29,21,11,29.50,29.34,22,6,25,0.00
2013-4-15,80.9,63.3,46.0,25.4,18.8,6.1,41,21,6,29.54,29.33,19,4,22,0.00
2013-4-16,80.6,65.5,50.4,24.7,14.0,-8.3,29,16,3,29.58,29.36,25,5,27,0.00
2013-4-17,62.3,51.6,38.9,28.0,18.3,6.2,43,28,12,29.82,29.40,18,4,28,0.00
2013-4-18,50.3,40.1,29.1,17.6,6.0,-3.1,43,26,12,30.23,29.82,20,4,24,0.00
2013-4-19,62.4,42.1,25.7,7.8,4.6,-0.9,43,24,8,30.33,30.00,15,1,16,0.00
2013-4-21,74.2,63.7,53.5,17.2,11.2,1.3,23,14,6,29.86,29.81,13,2,15,0.00
2013-4-22,82.0,65.0,46.2,18.2,13.2,3.1,31,16,5,29.85,29.56,19,3,24,0.00
2013-4-23,69.5,57.5,40.9,30.0,14.3,-16.9,45,20,5,29.90,29.58,19,3,23,0.00
2013-4-24,69.8,50.1,28.3,21.9,16.7,7.2,65,31,12,30.09,29.90,9,1,12,0.00
2013-4-25,78.1,61.4,47.7,28.7,23.5,13.5,39,25,11,29.98,29.63,20,3,26,0.00
2013-4-26,76.3,60.3,44.6,31.0,18.9,-7.0,58,26,4,30.01,29.80,15,2,18,0.00
2013-4-27,77.1,60.9,43.2,29.1,13.2,-10.0,49,22,4,30.05,29.85,14,1,19,0.00
2013-4-28,80.7,63.6,44.7,18.3,5.9,-10.1,34,12,3,29.90,29.66,14,1,17,0.00
2013-4-29,86.3,67.4,48.4,22.0,13.2,6.7,30,14,6,29.73,29.48,23,2,24,0.00
2013-4-30,87.5,70.2,54.3,24.8,14.0,1.3,31,13,4,29.58,29.42,18,3,22,0.00
2013-5-1,83.4,68.0,52.3,25.8,13.0,-0.3,34,14,5,29.89,29.53,19,3,23,0.00
2013-5-2,61.7,49.7,37.6,28.4,18.4,10.4,61,32,14,30.31,29.90,13,2,19,0.00
2013-5-3,67.6,51.5,32.8,17.4,12.3,5.0,49,24,9,30.32,29.91,12,2,12,0.00
2013-5-4,76.9,60.8,42.0,20.0,9.9,2.9,41,15,6,29.93,29.68,32,4,38,0.00
2013-5-5,74.2,61.8,52.5,32.9,19.5,7.2,32,20,12,29.91,29.76,40,8,43,0.00
2013-5-6,70.4,62.5,55.7,40.7,26.6,15.7,51,26,17,29.80,29.71,18,4,22,0.00
2013-5-7,76.9,63.1,47.0,41.1,29.7,19.9,59,31,12,29.83,29.63,16,2,23,0.00
2013-5-8,71.7,60.3,47.6,34.7,24.5,11.0,60,29,10,29.82,29.69,17,2,20,0.00
2013-5-9,74.3,60.1,45.2,36.3,24.2,17.5,48,27,14,29.93,29.76,14,2,18,0.00
2013-5-10,65.3,56.9,49.7,45.8,36.5,30.1,72,48,27,30.12,29.88,15,2,19,0.05
2013-5-11,72.6,57.5,42.8,43.3,36.1,26.8,85,50,19,30.18,30.10,22,2,24,0.00
2013-5-12,80.9,62.7,44.6,36.4,32.0,24.9,67,35,13,30.17,29.92,16,1,16,0.00
2013-5-13,83.8,68.7,53.3,32.2,28.8,24.4,41,24,13,30.05,29.83,12,1,13,0.00
2013-5-14,85.3,70.5,57.2,43.1,25.4,12.2,44,21,10,29.86,29.60,13,2,20,0.00
2013-5-15,88.6,71.8,60.1,44.9,35.4,22.8,48,29,10,29.71,29.52,16,2,22,0.00
2013-5-16,87.0,72.1,55.3,26.8,18.2,0.8,33,15,4,29.72,29.53,14,2,21,0.00
2013-5-17,88.0,72.0,54.3,29.3,19.5,9.2,33,15,6,29.73,29.55,24,2,28,0.00
2013-5-18,78.0,69.2,57.2,29.6,19.8,8.9,29,16,9,29.69,29.50,19,3,23,0.00
2013-5-19,75.3,63.9,55.3,35.5,29.5,16.1,47,29,12,29.69,29.60,19,4,24,0.00
2013-5-20,77.5,62.2,48.5,35.1,27.6,-0.1,56,31,5,29.77,29.60,20,3,24,0.00
2013-5-21,80.6,63.5,46.0,34.8,28.3,16.1,59,31,10,29.85,29.65,13,2,16,0.00
2013-5-22,87.3,71.4,51.9,29.4,18.9,5.8,39,17,5,29.70,29.51,14,1,15,0.00
2013-5-23,92.3,75.2,55.3,40.4,18.2,6.3,32,14,4,29.68,29.49,17,2,29,0.00
2013-5-24,89.1,74.8,57.6,40.7,29.0,15.2,46,22,7,29.75,29.58,13,2,18,0.00
2013-5-25,92.3,75.0,55.7,39.8,19.7,-0.8,30,15,3,29.77,29.53,13,2,18,0.00
2013-5-26,88.5,73.0,53.8,28.9,12.9,-13.6,31,12,3,29.75,29.56,13,1,17,0.00
2013-5-27,85.1,69.5,54.8,25.1,12.5,-5.8,27,12,3,29.71,29.55,16,2,20,0.00
2013-5-28,85.4,70.9,52.5,26.3,12.6,-6.8,30,13,3,29.60,29.33,11,1,16,0.00
2013-5-29,82.2,69.4,55.6,37.1,21.6,1.1,43,19,5,29.48,29.34,25,4,27,0.00
2013-5-30,88.5,71.7,51.4,28.7,21.1,14.2,41,16,7,29.62,29.48,19,3,28,0.00
2013-5-31,87.8,73.8,57.5,40.2,24.3,0.0,47,19,6,29.67,29.53,18,4,24,0.00
2013-6-1,87.5,71.8,49.9,29.6,8.6,-25.4,27,11,1,29.80,29.67,26,3,32,0.00
2013-6-2,92.1,75.2,65.4,41.2,34.7,27.8,37,24,14,29.78,29.51,29,4,37,0.00
2013-6-3,96.3,78.2,63.2,48.6,35.5,5.7,54,27,5,29.67,29.45,17,2,18,0.00
2013-6-4,93.8,85.0,68.1,31.6,15.8,-9.1,20,9,3,29.66,29.49,15,3,23,0.00
2013-6-5,90.4,77.2,61.1,46.3,32.2,16.6,38,21,8,29.63,29.49,27,2,27,0.00
2013-6-6,94.1,73.3,53.3,43.2,37.5,23.6,63,32,9,29.73,29.57,21,3,30,0.00
2013-6-7,94.4,76.7,57.0,50.9,40.4,25.4,74,33,10,29.71,29.44,23,2,25,0.00
2013-6-8,99.5,80.3,61.6,43.7,32.7,18.3,44,22,6,29.58,29.39,19,2,28,0.00
2013-6-9,100.6,83.5,65.4,47.6,42.3,32.0,50,26,11,29.64,29.50,14,2,19,0.00
2013-6-10,105.4,87.7,70.4,47.8,34.8,14.7,43,20,4,29.64,29.45,29,2,34,0.00
2013-6-11,104.8,87.2,65.7,36.1,21.4,-1.7,29,11,2,29.64,29.46,14,1,18,0.00
2013-6-12,104.2,83.8,61.8,36.0,22.8,7.7,35,13,3,29.70,29.56,10,1,15,0.00
2013-6-13,102.6,81.1,66.9,57.4,38.2,25.5,58,24,9,29.67,29.51,18,2,25,0.20
2013-6-14,96.7,78.5,66.7,60.5,48.5,38.8,61,36,14,29.64,29.39,17,2,24,0.02
2013-6-15,100.1,79.0,62.0,49.6,40.3,25.5,60,31,8,29.75,29.60,15,2,21,0.00
2013-6-16,94.5,75.7,63.3,44.6,41.3,35.6,47,31,13,29.75,29.67,13,1,16,0.00
2013-6-17,97.0,79.6,62.3,47.7,39.3,25.7,49,27,8,29.78,29.56,36,2,37,0.00
2013-6-18,95.3,79.1,64.2,52.2,45.0,33.7,61,34,12,29.74,29.51,31,6,37,0.00
2013-6-19,101.0,86.1,65.8,53.1,17.4,-18.5,39,15,1,29.60,29.40,15,4,24,0.00
2013-6-20,100.3,85.1,59.6,30.8,4.0,-17.9,28,8,1,29.64,29.46,13,3,16,0.00
2013-6-21,99.2,92.1,71.3,46.2,8.2,-17.7,34,7,1,29.66,29.47,16,4,17,0.00
2013-6-22,97.8,79.4,58.9,32.2,19.8,7.4,34,13,4,29.66,29.47,14,2,20,0.00
2013-6-23,98.6,80.3,60.8,22.7,17.9,9.6,23,11,4,29.64,29.43,13,1,17,0.00
2013-6-24,100.3,83.1,67.4,33.3,19.3,6.1,27,11,4,29.61,29.44,17,2,22,0.00
2013-6-25,93.7,79.7,62.3,32.6,24.3,18.3,26,14,7,29.68,29.55,15,2,17,0.00
2013-6-26,106.7,86.7,65.4,36.4,29.5,23.5,33,14,6,29.76,29.56,12,1,14,0.00
2013-6-27,112.0,90.9,69.0,39.4,31.4,19.7,29,14,5,29.71,29.55,17,2,19,0.00
2013-6-28,97.9,85.5,73.3,53.3,44.0,32.6,48,25,13,29.77,29.59,27,4,31,0.01
2013-6-29,97.1,81.0,65.6,49.9,44.9,37.0,55,30,14,29.78,29.60,19,2,23,0.00
2013-6-30,97.3,79.4,65.2,52.3,47.3,40.9,61,34,15,29.78,29.54,32,3,32,0.00
2013-7-1,87.3,72.8,60.6,57.1,51.6,45.1,80,50,28,29.87,29.72,17,2,20,0.04
2013-7-2,86.9,73.0,60.9,54.4,48.0,44.0,70,43,25,29.92,29.68,18,2,26,0.00
2013-7-3,87.0,71.1,56.0,58.0,53.1,43.4,91,58,25,29.86,29.60,14,1,22,0.16
2013-7-4,91.5,76.6,60.8,58.7,51.6,42.8,83,45,23,29.71,29.53,22,2,25,0.64
2013-7-5,90.7,73.5,65.8,65.4,56.0,46.9,89,57,25,29.67,29.47,11,1,16,0.22
2013-7-6,91.8,75.7,63.8,64.7,56.2,47.4,92,56,24,29.71,29.52,17,2,20,0.04
2013-7-7,94.1,79.5,64.3,61.5,55.9,47.5,85,49,22,29.71,29.56,10,1,15,0.02
2013-7-8,94.0,80.0,68.6,61.4,55.4,51.4,77,44,26,29.82,29.63,12,2,17,0.00
2013-7-9,94.6,79.2,66.9,60.8,56.2,46.5,80,49,25,29.83,29.68,23,2,25,0.00
2013-7-10,95.3,83.2,69.8,58.4,53.1,46.7,65,37,21,29.77,29.60,12,2,14,0.00
2013-7-11,89.4,78.4,68.9,60.8,56.1,51.4,70,48,30,29.78,29.59,12,2,14,0.00
2013-7-12,92.1,79.3,66.7,60.9,56.0,51.0,75,47,26,29.73,29.58,11,2,18,0.00
2013-7-13,94.2,80.1,67.0,59.3,54.6,46.9,75,44,22,29.74,29.60,12,2,16,0.00
2013-7-14,96.8,79.1,66.0,62.5,55.1,48.3,88,47,20,29.74,29.49,28,2,35,0.15
2013-7-15,75.0,68.3,65.0,63.3,56.3,49.5,91,67,48,29.88,29.66,15,2,21,0.01
2013-7-16,78.5,68.9,61.9,51.5,48.6,45.2,64,49,36,29.96,29.84,21,2,26,0.00
2013-7-17,80.9,68.7,56.2,55.8,52.5,48.8,90,59,34,30.06,29.90,18,2,22,0.02
2013-7-18,85.8,72.6,59.3,55.7,53.7,49.2,79,53,35,29.98,29.76,17,2,19,0.00
2013-7-19,87.3,70.6,58.4,66.0,60.4,53.8,94,72,40,29.83,29.66,16,1,24,0.85
2013-7-20,86.4,73.4,63.7,64.1,59.7,53.8,91,65,37,29.77,29.60,11,1,14,0.04
2013-7-21,88.8,75.6,65.5,61.8,56.9,49.0,81,55,30,29.72,29.57,14,1,14,0.00
2013-7-22,92.4,78.4,64.0,58.3,52.9,41.9,74,45,18,29.71,29.57,12,1,15,0.00
2013-7-23,95.2,80.0,65.3,57.8,52.0,43.6,68,40,23,29.69,29.53,16,2,22,0.00
2013-7-24,92.2,74.8,67.0,58.5,54.2,49.9,72,50,28,29.83,29.62,19,2,21,0.00
2013-7-25,85.4,76.3,64.6,60.7,58.4,56.3,78,55,40,29.88,29.74,9,2,13,0.00
2013-7-26,87.6,71.5,60.8,64.2,59.5,51.5,98,70,38,29.98,29.79,24,3,32,0.65
2013-7-27,82.7,71.5,58.7,60.0,57.0,49.8,92,63,39,29.99,29.72,11,1,14,0.00
2013-7-28,86.0,73.6,66.6,62.1,58.9,52.3,79,62,33,29.75,29.57,11,1,17,0.06
2013-7-29,90.1,75.4,61.6,61.5,54.1,46.0,87,52,23,29.81,29.68,14,2,17,0.00
2013-7-30,91.6,77.6,61.8,53.6,49.6,45.7,67,40,22,29.92,29.78,11,1,11,0.00
2013-7-31,94.7,80.7,67.4,57.3,50.8,41.5,63,38,18,29.89,29.72,11,1,16,0.00
2013-8-1,87.0,75.2,66.2,63.3,56.5,50.9,89,54,35,29.84,29.70,11,1,16,0.06
2013-8-2,90.1,73.7,62.9,63.1,58.9,52.9,89,64,29,29.81,29.66,11,2,18,0.12
2013-8-3,89.1,75.0,60.7,61.0,56.5,49.2,92,57,28,29.83,29.70,8,1,9,0.00
2013-8-4,91.8,77.5,64.7,62.0,56.8,50.0,86,52,26,29.81,29.65,13,1,23,0.15
2013-8-5,89.2,74.1,62.1,62.4,58.2,53.1,91,61,32,29.81,29.66,11,1,17,0.03
2013-8-6,88.7,74.3,63.5,58.9,53.9,48.4,70,51,28,29.75,29.65,13,1,16,0.00
2013-8-7,82.5,70.6,59.6,57.9,54.6,52.3,82,58,38,29.78,29.69,16,2,19,0.00
2013-8-8,86.2,72.6,60.5,57.5,51.7,43.8,81,52,25,29.78,29.68,14,2,21,0.00
2013-8-9,88.1,73.2,57.3,53.7,47.8,39.1,76,44,19,29.88,29.76,10,1,12,0.00
2013-8-10,84.8,70.7,61.3,56.3,51.8,45.6,75,53,33,30.00,29.82,12,2,17,0.04
2013-8-11,83.2,69.7,59.6,57.9,54.5,48.8,91,62,32,30.03,29.83,8,1,11,0.01
2013-8-12,85.5,72.3,65.8,59.5,55.6,50.3,77,57,34,29.92,29.77,13,1,14,0.00
2013-8-13,88.7,74.2,61.4,57.5,51.3,43.0,76,48,23,29.90,29.76,11,1,11,0.00
2013-8-14,89.7,73.8,60.5,58.6,51.1,41.6,76,48,21,29.87,29.73,17,1,23,0.00
2013-8-15,91.5,75.4,60.9,56.5,50.8,41.5,74,45,19,29.87,29.74,9,1,11,0.00
2013-8-16,93.5,79.7,63.5,53.0,46.8,35.1,65,35,13,29.84,29.69,10,1,15,0.00
2013-8-17,95.5,81.4,70.4,55.2,47.0,39.4,52,32,15,29.80,29.62,14,1,18,0.01
2013-8-18,92.4,79.2,66.5,53.5,49.8,45.2,58,38,21,29.80,29.65,12,1,13,0.00
2013-8-19,94.0,78.1,64.5,56.1,50.6,44.6,64,40,19,29.79,29.63,13,1,15,0.00
2013-8-20,90.2,74.8,61.2,59.9,55.2,51.9,77,53,29,29.81,29.65,11,1,11,0.00
2013-8-21,89.4,76.4,62.9,56.5,52.7,47.2,77,46,29,29.80,29.68,10,1,14,0.00
2013-8-22,90.5,78.7,64.0,57.5,47.8,38.0,56,35,25,29.83,29.65,10,1,16,0.00
2013-8-23,87.7,75.7,61.0,52.1,46.3,34.2,57,36,23,29.79,29.64,12,2,17,0.00
2013-8-24,85.0,74.5,67.2,61.6,53.5,46.3,70,49,34,29.84,29.70,19,1,20,0.02
2013-8-25,82.4,71.0,65.7,65.1,59.4,55.0,93,69,42,29.91,29.82,13,1,19,0.13
2013-8-26,89.4,74.6,62.0,63.5,56.2,47.4,87,56,31,29.96,29.78,9,1,12,0.02
2013-8-27,89.1,75.8,62.4,57.4,52.3,43.9,76,47,29,29.84,29.68,11,1,12,0.00
2013-8-28,87.6,76.0,67.1,57.4,53.3,48.2,61,46,31,29.85,29.72,13,1,16,0.00
2013-8-29,87.2,75.4,67.5,59.6,55.4,52.6,68,51,32,29.89,29.79,13,2,15,0.00
2013-8-30,92.6,77.9,63.4,62.0,56.0,45.1,85,51,23,29.87,29.69,10,1,12,0.00
2013-8-31,93.6,79.2,63.7,58.7,52.9,45.8,77,43,23,29.75,29.57,9,1,12,0.00
2013-9-1,93.1,75.9,65.0,61.3,52.3,43.6,82,46,23,29.81,29.61,29,3,31,0.05
2013-9-2,88.2,75.4,63.9,60.4,56.0,50.5,84,53,30,29.85,29.71,14,1,15,0.00
2013-9-3,91.0,74.9,63.3,62.5,56.3,50.6,85,56,27,29.85,29.68,15,1,20,0.42
2013-9-4,90.3,76.9,64.3,59.9,48.5,36.1,80,41,16,29.92,29.78,15,2,18,0.00
2013-9-5,89.3,77.1,61.3,50.7,42.5,34.9,59,31,20,29.91,29.77,17,2,18,0.00
2013-9-6,89.6,76.3,62.2,50.4,43.4,35.0,57,32,20,29.89,29.71,11,1,14,0.00
2013-9-7,87.5,75.6,63.7,54.7,51.0,43.5,65,43,30,29.82,29.67,11,1,16,0.00
2013-9-8,89.3,74.1,61.3,56.0,49.9,44.8,66,44,25,29.76,29.57,12,1,12,0.00
2013-9-9,85.0,72.6,62.0,65.0,52.5,45.6,84,51,32,29.68,29.52,17,1,19,0.17
2013-9-10,71.3,64.7,61.5,62.8,58.3,53.4,98,81,61,29.84,29.65,12,1,18,0.64
2013-9-11,79.8,68.1,60.0,62.5,58.8,51.5,99,75,39,29.90,29.79,14,1,18,0.01
2013-9-12,70.6,63.4,58.5,65.5,59.4,55.9,97,87,73,29.88,29.77,16,1,19,0.88
2013-9-13,72.2,62.5,57.6,62.0,59.4,56.3,99,90,64,29.87,29.75,9,0,9,0.31
2013-9-14,74.8,63.4,57.1,59.3,57.6,55.2,98,83,55,29.85,29.73,8,1,13,0.90
2013-9-15,77.3,65.4,56.3,60.1,55.4,50.1,99,73,41,29.90,29.79,13,1,19,0.29
2013-9-16,78.0,66.0,54.8,57.4,54.8,51.9,94,70,43,29.97,29.83,8,1,11,0.00
2013-9-17,80.5,68.8,58.4,61.4,56.3,53.3,89,66,41,29.90,29.69,10,1,12,0.00
2013-9-18,82.5,71.5,64.1,60.6,57.0,51.3,79,62,40,29.73,29.58,8,1,14,0.00
2013-9-19,82.2,69.8,58.2,60.2,53.2,39.5,97,60,27,29.73,29.63,9,1,12,0.08
2013-9-20,79.7,67.4,55.8,55.0,51.1,42.8,79,57,40,29.85,29.71,9,1,14,0.00
2013-9-21,79.4,66.8,54.7,58.2,53.3,49.2,91,64,38,29.85,29.67,9,1,13,0.00
2013-9-22,79.7,66.3,53.8,57.3,52.5,46.5,94,64,33,29.70,29.36,22,2,27,0.40
2013-9-23,71.3,58.1,44.9,46.7,39.1,34.1,83,53,29,29.94,29.56,17,2,19,0.00
2013-9-24,76.0,60.7,45.6,46.1,42.1,38.2,82,53,29,30.03,29.83,9,1,10,0.00
2013-9-25,82.3,68.2,54.0,45.6,41.7,35.8,61,39,25,29.82,29.48,13,1,16,0.00
2013-9-26,81.4,67.8,54.2,43.2,40.5,35.5,60,39,21,29.62,29.47,15,2,23,0.00
2013-9-27,72.5,60.8,45.5,51.2,41.4,29.0,64,49,39,29.86,29.52,18,3,21,0.00
2013-9-28,67.7,52.6,37.0,33.6,27.4,19.8,72,41,19,30.14,29.86,14,1,14,0.00
2013-9-29,74.8,57.4,41.0,32.7,28.9,23.5,65,37,16,30.14,29.91,9,1,12,0.00
2013-9-30,80.3,63.7,46.6,36.9,30.4,24.9,55,31,16,29.94,29.70,8,1,12,0.00
2013-10-1,81.3,64.5,47.5,34.6,29.1,18.3,55,29,10,29.84,29.72,9,1,11,0.00
2013-10-2,78.0,63.2,47.7,36.1,30.8,21.6,54,32,13,29.86,29.70,8,0,11,0.00
2013-10-3,77.0,64.5,51.1,38.6,33.5,27.4,52,33,17,29.74,29.53,16,1,16,0.00
2013-10-4,63.6,54.9,47.3,34.4,23.1,11.4,51,31,16,30.01,29.61,17,3,20,0.00
2013-10-5,62.0,48.8,36.1,25.4,21.2,16.4,62,35,19,30.20,30.01,12,2,15,0.00
2013-10-6,68.9,51.3,35.6,29.2,24.2,19.4,62,37,16,30.29,30.13,6,0,8,0.00
2013-10-7,74.0,57.3,40.4,30.7,26.4,20.9,61,33,14,30.19,29.96,10,1,11,0.00
2013-10-8,77.1,64.4,50.1,34.0,29.7,24.9,44,28,18,29.95,29.64,13,1,14,0.00
2013-10-9,74.6,62.6,48.0,38.9,33.8,28.1,62,36,19,29.74,29.62,12,1,14,0.00
2013-10-10,71.3,57.4,41.4,48.8,36.6,28.7,84,47,28,29.81,29.48,24,4,32,0.08
2013-10-11,61.8,47.9,34.2,35.4,32.1,29.4,85,57,33,30.01,29.81,12,2,18,0.00
2013-10-12,69.1,53.5,35.7,38.0,34.2,29.9,85,52,26,30.10,29.94,13,2,20,0.00
2013-10-13,76.7,62.2,45.8,45.3,39.4,33.7,72,46,22,29.99,29.74,16,2,19,0.00
2013-10-14,68.3,57.7,45.1,43.7,31.0,18.9,71,39,19,29.89,29.76,19,2,23,0.00
2013-10-15,64.5,50.5,36.3,34.0,28.8,24.3,67,45,29,29.99,29.82,32,5,43,0.01
2013-10-16,60.8,50.1,40.8,36.7,29.4,14.2,72,48,23,30.04,29.90,26,2,29,0.00
2013-10-17,62.3,47.1,33.0,26.7,22.1,18.9,64,40,20,30.11,29.89,9,1,11,0.00
2013-10-18,62.8,49.4,36.7,23.7,19.9,15.8,56,33,17,30.10,29.91,15,2,18,0.00
2013-10-19,63.6,47.1,30.3,28.4,22.1,17.8,77,41,20,30.17,30.00,11,1,11,0.00
2013-10-20,68.5,53.8,35.4,23.7,19.7,14.0,60,28,14,30.03,29.77,13,2,15,0.00
2013-10-21,63.4,50.4,37.4,32.6,27.6,19.0,68,43,24,30.10,29.86,7,1,9,0.00
2013-10-22,67.5,51.2,37.0,30.5,26.0,18.5,71,41,17,30.20,30.07,7,0,7,0.00
2013-10-23,69.3,53.5,38.2,31.8,27.9,22.6,67,39,21,30.14,29.98,9,0,9,0.00
2013-10-24,73.6,57.3,43.0,49.1,33.7,25.5,88,45,22,30.09,29.93,18,1,23,0.05
2013-10-25,65.3,53.0,45.6,51.0,45.1,38.7,96,76,49,30.09,29.95,14,1,19,0.13
2013-10-26,65.8,51.0,39.0,45.1,39.3,34.1,92,67,39,30.22,30.07,9,1,11,0.00
2013-10-27,67.4,53.8,39.8,39.8,36.7,32.5,86,56,28,30.14,29.81,11,1,12,0.00
2013-10-28,69.2,58.4,47.8,42.2,33.6,21.0,75,43,21,29.81,29.68,11,1,14,0.00
2013-10-29,67.6,58.4,50.5,30.2,26.6,22.6,39,30,22,29.85,29.65,14,2,19,0.00
2013-10-30,60.3,49.5,38.3,37.0,32.4,25.3,75,53,32,29.88,29.64,17,2,22,0.00
2013-10-31,55.0,44.1,32.3,31.0,27.4,23.6,80,54,31,30.07,29.89,19,3,19,0.00
2013-11-1,59.7,45.9,33.3,30.0,27.4,25.3,77,51,28,30.23,30.04,13,1,17,0.00
2013-11-2,62.9,48.1,33.5,29.8,26.3,22.8,75,46,24,30.29,29.99,9,1,11,0.00
2013-11-3,66.3,54.5,46.3,36.4,30.5,22.3,62,41,26,29.99,29.61,13,2,20,0.00
2013-11-4,64.8,53.5,38.8,43.5,36.3,33.0,81,54,33,29.83,29.66,10,1,14,0.00
2013-11-5,54.6,43.5,30.3,44.2,32.7,15.6,94,67,45,30.22,29.66,13,2,18,0.20
2013-11-6,52.9,38.7,24.5,20.4,17.5,10.9,74,45,20,30.49,30.22,11,1,14,0.00
2013-11-7,59.4,43.1,28.4,26.8,21.8,16.2,78,45,23,30.50,30.26,7,0,9,0.00
2013-11-8,61.2,47.8,34.7,28.7,23.7,17.3,60,40,25,30.26,30.00,7,0,9,0.00
2013-11-9,66.8,49.9,34.8,28.3,25.4,22.2,70,41,19,30.16,30.04,7,0,9,0.00
2013-11-10,67.0,50.3,36.9,30.7,26.4,23.9,61,41,21,30.23,30.11,6,0,8,0.00
2013-11-11,67.6,51.6,37.1,32.1,25.7,20.3,69,40,17,30.26,30.13,7,1,9,0.00
2013-11-12,57.2,45.7,36.7,36.3,31.4,22.9,80,58,40,30.48,30.26,9,1,10,0.00
2013-11-13,55.0,43.0,30.7,39.8,35.1,28.1,92,75,54,30.47,30.13,8,1,10,0.00
2013-11-14,58.7,47.8,39.5,41.7,35.8,27.1,86,65,39,30.14,29.87,8,1,10,0.00
2013-11-15,60.0,47.9,36.6,45.2,35.0,26.9,94,63,39,29.88,29.62,15,2,20,0.20
2013-11-16,58.7,48.7,42.9,43.7,37.9,29.3,93,68,42,29.78,29.56,11,1,13,0.02
2013-11-17,57.7,46.6,34.9,35.2,32.0,29.0,83,58,40,30.12,29.78,15,2,17,0.00
2013-11-18,56.9,43.5,34.6,34.7,31.4,29.0,82,64,36,30.21,30.09,7,0,8,0.00
2013-11-19,61.0,46.7,33.6,36.4,33.3,29.1,86,62,36,30.11,29.83,6,0,8,0.00
2013-11-20,48.7,43.7,39.6,42.3,37.4,30.9,95,79,55,29.90,29.81,8,0,9,0.21
2013-11-21,55.5,47.8,42.2,45.5,43.1,39.8,95,84,62,30.02,29.90,9,1,13,0.20
2013-11-22,44.5,37.1,33.6,43.2,32.2,28.2,97,83,71,30.36,29.99,15,2,21,0.03
2013-11-23,39.6,34.7,29.5,31.6,27.1,20.4,93,74,57,30.44,30.29,17,3,21,0.01
2013-11-24,30.8,27.8,24.4,25.8,23.7,21.6,92,85,76,30.38,30.23,8,1,9,0.10
2013-11-25,45.0,32.9,26.5,32.1,27.8,24.3,95,83,56,30.41,30.18,10,1,11,0.04
2013-11-26,46.6,34.7,25.4,31.8,27.4,23.2,93,76,52,30.51,30.41,8,1,9,0.01
2013-11-27,44.9,35.3,26.0,30.4,27.0,23.1,90,73,53,30.46,30.26,7,0,7,0.00
2013-11-28,48.4,36.0,26.2,29.2,26.0,22.0,86,68,45,30.34,30.23,6,0,8,0.00
2013-11-29,53.3,39.3,28.4,31.8,28.5,23.8,85,67,41,30.40,30.27,6,0,7,0.00
2013-11-30,55.0,41.7,31.0,34.0,31.4,27.9,89,69,43,30.34,30.18,7,0,7,0.00
2013-12-1,50.2,38.7,30.8,33.6,29.9,25.1,91,71,51,30.30,30.21,13,3,15,0.00
2013-12-2,52.2,38.5,27.9,30.1,27.0,23.9,86,65,41,30.23,29.89,10,1,12,0.00
2013-12-3,62.5,48.5,34.3,26.8,21.3,15.0,65,37,16,29.90,29.55,16,2,18,0.00
2013-12-4,58.2,46.7,35.8,31.3,24.6,16.1,71,44,24,29.76,29.47,25,6,29,0.00
2013-12-5,36.5,28.5,15.7,31.2,25.5,13.5,94,89,58,30.07,29.73,8,0,9,0.08
2013-12-6,34.1,23.1,13.4,21.2,16.0,11.3,92,76,42,30.33,30.07,5,0,8,0.23
2013-12-7,32.5,25.7,15.5,29.8,22.2,12.5,93,86,78,30.28,29.99,11,1,11,0.01
2013-12-8,32.1,28.5,24.3,26.7,18.8,13.3,88,67,55,30.09,29.91,15,3,20,0.01
2013-12-9,30.0,23.6,12.0,19.2,10.0,1.7,73,57,35,30.63,30.09,19,4,20,0.00
2013-12-10,34.7,21.1,8.5,10.6,5.8,1.6,76,53,29,30.67,30.48,13,1,18,0.00
2013-12-11,42.7,26.7,14.7,20.0,13.6,7.9,78,59,33,30.67,30.50,7,0,8,0.01
2013-12-12,43.3,30.9,20.8,24.8,19.5,14.1,78,63,45,30.64,30.23,6,0,10,0.00
2013-12-13,45.1,35.9,32.1,34.8,27.8,20.2,94,73,57,30.22,30.00,14,2,19,0.01
2013-12-14,44.8,33.5,23.6,22.9,19.8,17.9,81,58,37,30.48,30.16,12,2,13,0.00
2013-12-15,47.4,35.5,26.3,22.0,19.6,17.1,71,53,34,30.50,30.35,14,2,14,0.00
2013-12-16,54.2,40.0,29.2,23.9,22.3,20.3,70,51,28,30.45,30.32,10,1,11,0.00
2013-12-17,55.9,41.2,28.3,24.6,22.7,21.3,77,50,27,30.45,30.29,11,1,13,0.00
2013-12-18,53.3,40.0,28.8,27.5,23.6,20.5,75,54,32,30.29,29.93,5,0,8,0.00
2013-12-19,55.3,44.4,32.2,26.7,23.2,17.8,70,44,30,29.93,29.65,10,1,10,0.00
2013-12-20,52.4,41.6,32.9,34.0,25.1,20.0,78,54,31,29.75,29.57,11,1,12,0.00
2013-12-21,40.0,35.3,32.6,35.0,29.5,24.9,97,80,64,29.88,29.50,18,3,18,0.28
2013-12-22,40.9,32.9,28.1,25.8,21.8,16.6,75,64,40,30.37,29.88,12,1,14,0.00
2013-12-23,45.7,35.2,27.4,22.3,20.0,17.4,67,54,37,30.56,30.36,13,2,14,0.00
2013-12-24,48.8,36.8,25.7,25.4,22.3,18.7,78,57,38,30.46,30.22,11,1,13,0.00
2013-12-25,45.7,33.3,22.9,23.4,18.5,13.2,84,57,30,30.48,30.32,7,1,10,0.00
2013-12-26,48.5,33.5,21.6,20.6,17.1,13.1,73,53,30,30.49,30.33,8,1,10,0.00
2013-12-27,51.2,35.0,24.3,21.6,18.2,15.7,73,53,26,30.45,30.29,4,0,6,0.00
2013-12-28,47.2,35.4,24.6,22.1,18.7,16.5,72,52,31,30.29,29.97,7,1,8,0.00
2013-12-29,46.8,37.6,31.0,25.5,22.7,19.8,70,55,38,30.22,30.00,8,1,13,0.00
2013-12-30,49.2,37.1,28.2,20.7,14.5,9.4,59,41,22,30.39,30.21,13,2,18,0.00
2013-12-31,49.7,36.4,25.0,20.4,17.7,15.6,68,49,29,30.39,30.19,6,1,7,0.00
2014-1-1,53.7,39.2,27.4,23.7,19.9,17.5,70,48,25,30.33,30.13,15,2,19,0.00
2014-1-2,51.0,35.8,22.9,23.2,16.3,8.0,79,49,18,30.41,30.28,7,1,8,0.00